Weather History for Colby, KS

Change the Weather History Date:

Friday, January 3, 2014

  Actual Average (KGLD) Record (KGLD)
Temperature  
Mean Temperature 40 °F 30 °F  
Max Temperature 60 °F 42 °F 68 °F (2006)
Min Temperature 19 °F 17 °F -26 °F (1959)
Degree Days  
Heating Degree Days 26 35  
Month to date heating degree days 107  
Since 1 July heating degree days 2514  
Cooling Degree Days 0 0  
Month to date cooling degree days 0  
Year to date cooling degree days 0  
Moisture  
Dew Point 26 °F    
Average Humidity 67    
Maximum Humidity 100    
Minimum Humidity 27    
Precipitation  
Precipitation 0.00 in 0.02 in 0.29 in (1949)
Month to date precipitation 0.04  
Year to date precipitation 0.04  
Snow  
Snow 0.00 in 0.10 in - ()
Month to date snowfall 0.5  
Since 1 July snowfall 13.2  
Snow Depth -    
Sea Level Pressure  
Sea Level Pressure 29.76 in    
Wind  
Wind Speed 11 mph (SSW)    
Max Wind Speed 18 mph    
Max Gust Speed 22 mph    
Visibility 10 miles    
Events      
T = Trace of Precipitation, MM = Missing Value Source: NWS Daily Summary

Daily Weather History Graph

Daily Weather History Graph

Search for Another Location

Airport:

Trip Planner

Search our weather history database for the weather conditions in past years. The results will help you decide how hot, cold, wet, or windy it might be!

Date:

Astronomy

Jan. 03, 2014 Rise Set
Actual Time 8:04 AM CST 5:33 PM CST
Civil Twilight 7:34 AM CST 6:03 PM CST
Nautical Twilight 7:00 AM CST 6:36 PM CST
Astronomical Twilight 6:28 AM CST 7:09 PM CST
Moon 9:32 AM CST (1/3) 8:43 PM CST (1/3)
Length of Visible Light 10h 28m
Length of Day
9h 28m
Waxing Crescent, 8% of the Moon is Illuminated
Jan 3
Waxing Crescent
Jan 7
First Quarter
Jan 15
Full
Jan 23
Last Quarter
Jan 30
New

Hourly Weather History & Observations

Time (CST) Temp. Windchill Dew Point Humidity Pressure Visibility Wind Dir Wind Speed Gust Speed Precip Events Conditions
12:15 AM 26.6 °F 16.2 °F 26.6 °F 100% 30.10 in 10.0 mi South 11.5 mph - N/A   Clear
12:35 AM 26.6 °F 15.7 °F 26.6 °F 100% 30.09 in 10.0 mi SSE 12.7 mph - N/A   Clear
12:55 AM 26.6 °F 16.8 °F 26.6 °F 100% 30.08 in 10.0 mi SSE 10.4 mph - N/A   Scattered Clouds
1:15 AM 26.6 °F 18.2 °F 24.8 °F 93% 30.07 in 10.0 mi SSE 8.1 mph - N/A   Mostly Cloudy
1:35 AM 26.6 °F 16.2 °F 26.6 °F 100% 30.06 in 10.0 mi South 11.5 mph - N/A   Scattered Clouds
1:55 AM 26.6 °F 16.2 °F 24.8 °F 93% 30.05 in 10.0 mi South 11.5 mph - N/A   Clear
2:15 AM 24.8 °F 14.6 °F 24.8 °F 100% 30.04 in 10.0 mi South 10.4 mph - N/A   Clear
2:35 AM 24.8 °F 15.3 °F 24.8 °F 100% 30.02 in 10.0 mi South 9.2 mph - N/A   Clear
2:55 AM 26.6 °F 17.5 °F 24.8 °F 93% 30.02 in 10.0 mi South 9.2 mph 16.1 mph N/A   Clear
3:15 AM 24.8 °F 15.3 °F 23.0 °F 93% 30.00 in 10.0 mi SSE 9.2 mph - N/A   Clear
3:35 AM 24.8 °F 16.1 °F 24.8 °F 100% 29.99 in 10.0 mi South 8.1 mph - N/A   Clear
3:55 AM 26.6 °F 16.8 °F 24.8 °F 93% 29.98 in 10.0 mi South 10.4 mph - N/A   Clear
4:15 AM 26.6 °F 18.2 °F 24.8 °F 93% 29.96 in 10.0 mi South 8.1 mph - N/A   Clear
4:35 AM 26.6 °F 18.2 °F 24.8 °F 93% 29.95 in 10.0 mi South 8.1 mph - N/A   Clear
4:55 AM 23.0 °F 13.1 °F 21.2 °F 93% 29.95 in 10.0 mi SW 9.2 mph - N/A   Clear
5:15 AM 21.2 °F 12.6 °F 21.2 °F 100% 29.93 in 10.0 mi SW 6.9 mph - N/A   Clear
5:35 AM 19.4 °F 10.4 °F 19.4 °F 100% 29.93 in 10.0 mi SW 6.9 mph - N/A   Clear
5:55 AM 19.4 °F 11.5 °F 19.4 °F 100% 29.92 in 10.0 mi SSW 5.8 mph - N/A   Clear
6:15 AM 21.2 °F 13.6 °F 21.2 °F 100% 29.91 in 10.0 mi South 5.8 mph - N/A   Clear
6:35 AM 21.2 °F 11.7 °F 21.2 °F 100% 29.90 in 10.0 mi South 8.1 mph - N/A   Clear
6:55 AM 24.8 °F 16.1 °F 23.0 °F 93% 29.88 in 10.0 mi South 8.1 mph - N/A   Clear
7:15 AM 24.8 °F 16.1 °F 23.0 °F 93% 29.87 in 10.0 mi South 8.1 mph - N/A   Clear
7:35 AM 23.0 °F 13.9 °F 21.2 °F 93% 29.86 in 10.0 mi SSW 8.1 mph - N/A   Clear
7:55 AM 23.0 °F 13.9 °F 21.2 °F 93% 29.86 in 10.0 mi SSW 8.1 mph - N/A   Clear
8:15 AM 21.2 °F 12.6 °F 21.2 °F 100% 29.85 in 10.0 mi SSW 6.9 mph - N/A   Clear
8:35 AM 23.0 °F 13.1 °F 21.2 °F 93% 29.84 in 10.0 mi SW 9.2 mph - N/A   Clear
8:55 AM 23.0 °F 13.1 °F 23.0 °F 100% 29.84 in 10.0 mi SW 9.2 mph - N/A   Clear
9:15 AM 26.6 °F 16.2 °F 23.0 °F 86% 29.83 in 10.0 mi SSW 11.5 mph - N/A   Clear
9:35 AM 28.4 °F 19.7 °F 24.8 °F 86% 29.82 in 10.0 mi SW 9.2 mph - N/A   Clear
9:55 AM 30.2 °F 21.9 °F 26.6 °F 86% 29.82 in 10.0 mi SW 9.2 mph - N/A   Clear
10:15 AM 32.0 °F 25.6 °F 28.4 °F 87% 29.81 in 10.0 mi SW 6.9 mph - N/A   Clear
10:35 AM 35.6 °F 28.0 °F 28.4 °F 75% 29.80 in 10.0 mi SW 10.4 mph - N/A   Clear
10:55 AM 41.0 °F 34.3 °F 30.2 °F 65% 29.79 in 10.0 mi SW 11.5 mph - N/A   Clear
11:15 AM 44.6 °F 38.8 °F 28.4 °F 53% 29.77 in 10.0 mi SSW 11.5 mph - N/A   Clear
11:35 AM 48.2 °F - 28.4 °F 46% 29.75 in 10.0 mi SSW 10.4 mph - N/A   Clear
11:55 AM 51.8 °F - 28.4 °F 41% 29.73 in 10.0 mi SSW 10.4 mph - N/A   Clear
12:15 PM 55.4 °F - 28.4 °F 36% 29.71 in 10.0 mi SSW 10.4 mph - N/A   Clear
12:35 PM 57.2 °F - 28.4 °F 33% 29.69 in 10.0 mi South 13.8 mph - N/A   Clear
12:55 PM 59.0 °F - 26.6 °F 29% 29.68 in 10.0 mi South 15.0 mph 18.4 mph N/A   Clear
1:15 PM 60.8 °F - 26.6 °F 27% 29.67 in 10.0 mi SSW 15.0 mph - N/A   Clear
1:35 PM 60.8 °F - 26.6 °F 27% 29.65 in 10.0 mi SSW 16.1 mph - N/A   Clear
1:55 PM 60.8 °F - 26.6 °F 27% 29.64 in 10.0 mi SSW 13.8 mph - N/A   Clear
2:15 PM 60.8 °F - 26.6 °F 27% 29.63 in 10.0 mi SSW 15.0 mph 21.9 mph N/A   Clear
2:35 PM 60.8 °F - 28.4 °F 29% 29.63 in 10.0 mi SSW 17.3 mph - N/A   Clear
2:55 PM 60.8 °F - 30.2 °F 31% 29.62 in 10.0 mi SSW 13.8 mph - N/A   Clear
3:15 PM 60.8 °F - 32.0 °F 34% 29.61 in 10.0 mi SSW 15.0 mph - N/A   Clear
3:35 PM 60.8 °F - 32.0 °F 34% 29.60 in 10.0 mi South 13.8 mph 17.3 mph N/A   Clear
3:55 PM 60.8 °F - 32.0 °F 34% 29.59 in 10.0 mi South 13.8 mph 17.3 mph N/A   Clear
4:15 PM 60.8 °F - 32.0 °F 34% 29.59 in 10.0 mi South 10.4 mph - N/A   Clear
4:35 PM 60.8 °F - 30.2 °F 31% 29.58 in 10.0 mi South 11.5 mph 17.3 mph N/A   Clear
4:55 PM 59.0 °F - 30.2 °F 34% 29.58 in 10.0 mi South 10.4 mph - N/A   Clear
5:15 PM 55.4 °F - 32.0 °F 41% 29.57 in 10.0 mi South 10.4 mph - N/A   Clear
5:35 PM 53.6 °F - 32.0 °F 44% 29.57 in 10.0 mi South 12.7 mph 20.7 mph N/A   Clear
5:55 PM 51.8 °F - 30.2 °F 44% 29.56 in 10.0 mi South 15.0 mph 18.4 mph N/A   Clear
6:15 PM 50.0 °F - 30.2 °F 47% 29.56 in 10.0 mi South 15.0 mph - N/A   Clear
6:35 PM 50.0 °F - 28.4 °F 43% 29.56 in 10.0 mi SSW 12.7 mph 19.6 mph N/A   Clear
6:55 PM 44.6 °F 39.2 °F 26.6 °F 49% 29.56 in 10.0 mi South 10.4 mph - N/A   Clear
7:15 PM 44.6 °F 41.4 °F 24.8 °F 46% 29.57 in 10.0 mi SSW 5.8 mph - N/A   Clear
7:35 PM 39.2 °F 33.0 °F 23.0 °F 52% 29.58 in 10.0 mi SW 9.2 mph - N/A   Clear
7:55 PM 37.4 °F 30.8 °F 23.0 °F 56% 29.59 in 10.0 mi WSW 9.2 mph - N/A   Clear
8:10 PM 37.4 °F 29.8 °F 23.0 °F 56% 29.58 in 10.0 mi SW 11.5 mph - N/A   Clear
8:35 PM 39.2 °F 33.0 °F 24.8 °F 56% 29.56 in 10.0 mi SSW 9.2 mph - N/A   Clear
8:55 PM 41.0 °F 35.8 °F 26.6 °F 57% 29.56 in 10.0 mi SSW 8.1 mph - N/A   Clear
9:15 PM 33.8 °F 27.7 °F 23.0 °F 65% 29.57 in 10.0 mi SW 6.9 mph - N/A   Clear
9:35 PM 35.6 °F 29.9 °F 24.8 °F 65% 29.57 in 10.0 mi WSW 6.9 mph - N/A   Clear
9:55 PM 35.6 °F 29.2 °F 24.8 °F 65% 29.57 in 10.0 mi WSW 8.1 mph - N/A   Clear
10:15 PM 37.4 °F 28.9 °F 26.6 °F 65% 29.59 in 10.0 mi WNW 13.8 mph 18.4 mph N/A   Clear
10:35 PM 41.0 °F 32.2 °F 24.8 °F 53% 29.62 in 10.0 mi NNW 18.4 mph - N/A   Clear
10:55 PM 44.6 °F 38.4 °F 24.8 °F 46% 29.62 in 10.0 mi NNW 12.7 mph - N/A   Clear
11:15 PM 44.6 °F 38.8 °F 24.8 °F 46% 29.63 in 10.0 mi NW 11.5 mph - N/A   Clear
11:35 PM 44.6 °F 38.1 °F 26.6 °F 49% 29.63 in 10.0 mi NNW 13.8 mph - N/A   Clear
11:55 PM 48.2 °F - 28.4 °F 46% 29.63 in 10.0 mi NNW 15.0 mph - N/A   Clear